SICH-2-30 (SICH-2-1) (51030 NORAD) Tracking and Keplerian Element Data

This shows tracking and keplerian element data for the satellite.

Feedback or suggestion? Click here.




ElementValue
Catalog51030
NameSICH-2-30 (SICH-2-1)
Epoch Orbit13300
Epoch Day160.16742519
Epoch Year2024
RAAN226.5537
Inclination97.3889
Eccentricity0.0008117
Argument of Perigee77.503
Mean Anonmoly282.7118
Mean Motion15.29252706
Decay Rate0.00022316
L11 51030U 22002AY 24160.16742519 .00022316 00000+0 78674-3 0 9991
L22 51030 97.3889 226.5537 0008117 77.5030 282.7118 15.29252706133009



Live tracking and technical data element details for SICH-2-30 (SICH-2-1) (NORAD 51030). SICH-2-30 (SICH-2-1) can be tracked NOW for your location showing map with azimuth and elevation plus other details from your city location.







IsCatalogInMostPopularTable: catalog: 51030, numindb: 659
Update: records affected: 1



GetName: 51030 SICH-2-30 (SICH-2-1)

Hit Count: updated at: Mon, 17 Jun 2024 23:53:58 GMT